When you browse on this site, cookies collect data to enhance your experience and personalize the content and advertising you see.
Visit our Privacy Policy to learn more. By continuing to use the site, you agree to this use of cookies and data.
  • En España
  • Lista de países
  • Para 7 días
  • Temperatura del agua
  • Mapa Satelital
  • El tiempo en el mapa
  • Informadores
  • user-avatar
    Iniciar sesión

    Tiempo cada hora Tirana

    Hoy, 22 Marzo, Viernes

    Tiempo Temperatura Precipitaciones Viento Presión Humedad
    00:00 +12°C° 0 mm 4 mps 762 mmHg 58%
    01:00 +12°C° 0 mm 3 mps 762 mmHg 58%
    02:00 +12°C° 0 mm 3 mps 762 mmHg 59%
    03:00 +11°C° 0 mm 3 mps 762 mmHg 61%
    04:00 +11°C° 0 mm 3 mps 762 mmHg 62%
    05:00 +11°C° 0 mm 3 mps 762 mmHg 62%
    06:00 +12°C° 0 mm 3 mps 762 mmHg 62%
    07:00 +13°C° 0 mm 3 mps 762 mmHg 60%
    08:00 +16°C° 0 mm 3 mps 761 mmHg 53%
    09:00 +18°C° 0 mm 3 mps 761 mmHg 46%
    10:00 +20°C° 0 mm 3 mps 761 mmHg 39%
    11:00 +21°C° 0 mm 3 mps 761 mmHg 36%
    12:00 +22°C° 0 mm 4 mps 760 mmHg 33%
    13:00 +22°C° 0 mm 4 mps 760 mmHg 30%
    14:00 +22°C° 0 mm 5 mps 760 mmHg 32%
    15:00 +22°C° 0 mm 5 mps 759 mmHg 33%
    16:00 +22°C° 0 mm 6 mps 759 mmHg 34%
    17:00 +20°C° 0 mm 6 mps 759 mmHg 41%
    18:00 +17°C° 0 mm 6 mps 759 mmHg 47%
    19:00 +15°C° 0 mm 6 mps 759 mmHg 54%
    20:00 +14°C° 0 mm 5 mps 759 mmHg 52%
    21:00 +14°C° 0 mm 4 mps 760 mmHg 51%
    22:00 +13°C° 0 mm 3 mps 760 mmHg 50%
    23:00 +13°C° 0 mm 3 mps 760 mmHg 50%

    Mañana, 23 Marzo, Sábado

    Tiempo Temperatura Precipitaciones Viento Presión Humedad
    00:00 +12°C° 0 mm 3 mps 760 mmHg 50%
    01:00 +12°C° 0 mm 3 mps 759 mmHg 50%
    02:00 +12°C° 0 mm 3 mps 759 mmHg 51%
    03:00 +11°C° 0 mm 3 mps 759 mmHg 51%
    04:00 +11°C° 0 mm 3 mps 759 mmHg 52%
    05:00 +11°C° 0 mm 3 mps 759 mmHg 53%
    06:00 +12°C° 0 mm 3 mps 759 mmHg 54%
    07:00 +12°C° 0 mm 3 mps 759 mmHg 55%
    08:00 +16°C° 0 mm 2 mps 759 mmHg 48%
    09:00 +18°C° 0 mm 2 mps 759 mmHg 41%
    10:00 +20°C° 0 mm 2 mps 758 mmHg 34%
    11:00 +21°C° 0 mm 3 mps 758 mmHg 33%
    12:00 +22°C° 0 mm 4 mps 758 mmHg 32%
    13:00 +23°C° 0 mm 4 mps 758 mmHg 31%
    14:00 +22°C° 0 mm 5 mps 757 mmHg 35%
    15:00 +21°C° 0 mm 6 mps 757 mmHg 39%
    16:00 +21°C° 0 mm 7 mps 757 mmHg 43%
    17:00 +18°C° 0 mm 7 mps 757 mmHg 50%
    18:00 +16°C° 0 mm 6 mps 757 mmHg 57%
    19:00 +14°C° 0 mm 6 mps 757 mmHg 64%
    20:00 +14°C° 0 mm 5 mps 757 mmHg 62%
    21:00 +14°C° 0 mm 4 mps 758 mmHg 61%
    22:00 +13°C° 0 mm 3 mps 758 mmHg 60%
    23:00 +13°C° 0 mm 3 mps 758 mmHg 58%

    Pasado mañana, 24 Marzo, Domingo

    Tiempo Temperatura Precipitaciones Viento Presión Humedad
    00:00 +13°C° 0 mm 3 mps 758 mmHg 56%
    01:00 +14°C° 0 mm 2 mps 758 mmHg 54%
    02:00 +13°C° 0 mm 2 mps 758 mmHg 55%
    03:00 +13°C° 0 mm 2 mps 758 mmHg 55%
    04:00 +12°C° 0 mm 2 mps 758 mmHg 55%
    05:00 +13°C° 0 mm 2 mps 758 mmHg 56%
    06:00 +14°C° 0 mm 2 mps 758 mmHg 57%
    07:00 +14°C° 0 mm 2 mps 758 mmHg 58%
    08:00 +16°C° 0 mm 2 mps 758 mmHg 51%
    09:00 +20°C° 0 mm 1 mps 758 mmHg 43%
    10:00 +22°C° 0 mm 1 mps 758 mmHg 36%
    11:00 +23°C° 0 mm 2 mps 758 mmHg 35%
    12:00 +22°C° 0 mm 3 mps 757 mmHg 35%
    13:00 +23°C° 0 mm 4 mps 757 mmHg 34%
    14:00 +22°C° 0 mm 5 mps 757 mmHg 38%
    15:00 +21°C° 0 mm 5 mps 756 mmHg 41%
    16:00 +20°C° 0 mm 6 mps 756 mmHg 45%
    17:00 +17°C° 0 mm 5 mps 756 mmHg 53%
    18:00 +15°C° 0 mm 4 mps 756 mmHg 61%
    19:00 +13°C° 0 mm 3 mps 756 mmHg 69%
    20:00 +14°C° 0 mm 2 mps 757 mmHg 70%
    21:00 +14°C° 0 mm 1 mps 757 mmHg 70%
    22:00 +13°C° 0 mm 1 mps 757 mmHg 71%
    23:00 +13°C° 0 mm 1 mps 757 mmHg 71%

    25 Marzo, Lunes

    Tiempo Temperatura Precipitaciones Viento Presión Humedad
    00:00 +13°C° 0 mm 1 mps 757 mmHg 71%
    01:00 +13°C° 0 mm 1 mps 757 mmHg 71%
    02:00 +12°C° 0 mm 1 mps 756 mmHg 71%
    03:00 +12°C° 0 mm 1 mps 756 mmHg 71%
    04:00 +12°C° 0 mm 1 mps 756 mmHg 71%
    05:00 +12°C° 0 mm 1 mps 756 mmHg 68%
    06:00 +13°C° 0 mm 1 mps 756 mmHg 65%
    07:00 +14°C° 0 mm 1 mps 756 mmHg 63%
    08:00 +16°C° 0 mm 1 mps 756 mmHg 58%
    09:00 +18°C° 0 mm 1 mps 756 mmHg 53%
    10:00 +19°C° 0 mm 2 mps 755 mmHg 49%
    11:00 +19°C° 0 mm 2 mps 755 mmHg 49%
    12:00 +20°C° 0 mm 3 mps 755 mmHg 49%
    13:00 +20°C° 0 mm 4 mps 754 mmHg 49%
    14:00 +20°C° 0 mm 4 mps 754 mmHg 52%
    15:00 +19°C° 0 mm 4 mps 753 mmHg 55%
    16:00 +18°C° 0 mm 4 mps 753 mmHg 58%
    17:00 +17°C° 0 mm 3 mps 753 mmHg 66%
    18:00 +15°C° 0 mm 2 mps 753 mmHg 75%
    19:00 +13°C° 0 mm 1 mps 753 mmHg 83%
    20:00 +13°C° 0 mm 1 mps 753 mmHg 84%
    21:00 +11°C° 0 mm 0 mps 753 mmHg 84%
    22:00 +11°C° 0 mm 0 mps 753 mmHg 84%
    23:00 +12°C° 0 mm 1 mps 753 mmHg 85%

    26 Marzo, Martes

    Tiempo Temperatura Precipitaciones Viento Presión Humedad
    00:00 +12°C° 0 mm 1 mps 752 mmHg 85%
    01:00 +11°C° 0 mm 1 mps 752 mmHg 85%
    02:00 +11°C° 0 mm 1 mps 752 mmHg 85%
    03:00 +11°C° 0 mm 1 mps 752 mmHg 85%
    04:00 +10°C° 0 mm 1 mps 752 mmHg 85%
    05:00 +11°C° 0 mm 1 mps 752 mmHg 81%
    06:00 +12°C° 0 mm 1 mps 752 mmHg 76%
    07:00 +12°C° 0 mm 2 mps 752 mmHg 72%
    08:00 +14°C° 0 mm 2 mps 752 mmHg 65%
    09:00 +16°C° 0 mm 2 mps 753 mmHg 58%
    10:00 +17°C° 0 mm 2 mps 753 mmHg 50%
    11:00 +17°C° 0.9 mm 3 mps 753 mmHg 57%
    12:00 +15°C° 0.9 mm 5 mps 753 mmHg 64%
    13:00 +14°C° 0.9 mm 6 mps 753 mmHg 70%
    14:00 +11°C° 0.6 mm 7 mps 753 mmHg 73%
    15:00 +10°C° 0.6 mm 8 mps 752 mmHg 75%
    16:00 +8°C° 0.6 mm 9 mps 752 mmHg 78%
    17:00 +8°C° 0.1 mm 9 mps 753 mmHg 77%
    18:00 +7°C° 0.1 mm 8 mps 753 mmHg 75%
    19:00 +7°C° 0.1 mm 8 mps 753 mmHg 74%
    20:00 +7°C° 0.1 mm 8 mps 753 mmHg 71%
    21:00 +6°C° 0.1 mm 8 mps 753 mmHg 68%
    22:00 +6°C° 0.1 mm 7 mps 753 mmHg 65%
    23:00 +6°C° 0.2 mm 7 mps 753 mmHg 65%

    27 Marzo, Miércoles

    Tiempo Temperatura Precipitaciones Viento Presión Humedad
    00:00 +5°C° 0.2 mm 7 mps 753 mmHg 66%
    01:00 +5°C° 0.2 mm 6 mps 753 mmHg 66%
    02:00 +5°C° 0.2 mm 6 mps 753 mmHg 67%
    03:00 +5°C° 0.2 mm 6 mps 754 mmHg 67%
    04:00 +6°C° 0.2 mm 5 mps 754 mmHg 68%
    05:00 +7°C° 0 mm 5 mps 754 mmHg 66%
    06:00 +7°C° 0 mm 6 mps 755 mmHg 64%
    07:00 +7°C° 0 mm 6 mps 755 mmHg 62%
    08:00 +9°C° 0 mm 6 mps 756 mmHg 56%
    09:00 +10°C° 0 mm 6 mps 757 mmHg 50%
    10:00 +13°C° 0 mm 6 mps 757 mmHg 44%
    11:00 +14°C° 0 mm 6 mps 757 mmHg 43%
    12:00 +14°C° 0 mm 6 mps 757 mmHg 42%
    13:00 +15°C° 0 mm 6 mps 757 mmHg 40%
    14:00 +15°C° 0 mm 6 mps 757 mmHg 41%
    15:00 +15°C° 0 mm 6 mps 757 mmHg 41%
    16:00 +15°C° 0 mm 6 mps 758 mmHg 41%
    17:00 +13°C° 0 mm 6 mps 758 mmHg 46%
    18:00 +10°C° 0 mm 6 mps 759 mmHg 51%
    19:00 +9°C° 0 mm 6 mps 759 mmHg 56%
    20:00 +8°C° 0 mm 6 mps 760 mmHg 58%
    21:00 +8°C° 0 mm 6 mps 760 mmHg 59%
    22:00 +7°C° 0 mm 6 mps 760 mmHg 61%
    23:00 +7°C° 0 mm 6 mps 761 mmHg 62%
    Mostrar más